Content
SEND FEEDBACK

Daily
Averages
Monthly
Summary
United States of America

CAMP QUEZON, GUAM


Home > North America > United States > Guam
Elevation: 82 meters     Latitude: 13 28N     Longitude: 144 48E

WEATHER
 
SELECT A DAY
Number of Records: 209,133;   Date Range: 1/1/95 - 8/28/14
 
SHARE

PRINT THIS DATA

[ ← Previous Day ]
WEATHER ALMANAC - 20 JANUARY, 2014
[ Next Day → ]
[ °F ]   °C
Weather ElementAverageHighLow
Temperature26.6 °C30 °C (1:54 pm)24.4 °C (1:54 am)
Dewpoint22.7 °C24.4 °C (11:54 am)21.1 °C (4:54 am)
Humidity79.6 %94 % (5:39 pm)63 % (1:54 pm)
Barometer1010.5 hPa1012.2 hPa (8:54 am)1008.5 hPa (2:54 pm)
Wind Speed21.9 km/h35.2 km/h (8:54 am)
Wind Gust50.1 km/h (5:24 pm)
Weather ElementAverage
Visibility14.6 km
Wind DirectionENE (63.8 °)

Weather ElementTotal
Precipitation2.03 mm
Cooling Degree Days8.9 (Base 18.3)
Growing Degree Days17.2 (Base 10)
Averaged from 29 records on 20 January, 2014
WEATHER CONDITIONS BREAKOUT
WIND DIRECTION BREAKOUT
WEATHER BY HOUR - 20 JANUARY, 2014
[ °F ]   °C
Local TimeTemperatureDewpointHumidityBarometerVisibilityWind DirectionWind SpeedGust SpeedPrecipitationEventsConditions
1:54 AM24.4 °C21.7 °C85 %1011.2 hPa16.1 kmNE (50°)11.1 km/hClear
2:54 AM25 °C22.2 °C84 %1010.5 hPa16.1 kmENE (70°)13 km/hClear
3:54 AM25 °C22.8 °C88 %1010.2 hPa16.1 kmENE (60°)14.8 km/hPartly Cloudy
4:54 AM24.4 °C21.1 °C82 %1010.5 hPa16.1 kmENE (60°)11.1 km/hClear
5:54 AM24.4 °C21.1 °C82 %1010.8 hPa16.1 kmNE (50°)13 km/hClear
6:54 AM24.4 °C21.7 °C85 %1011.2 hPa16.1 kmNE (50°)11.1 km/hClear
7:54 AM25.6 °C22.2 °C81 %1011.9 hPa16.1 kmNE (50°)18.5 km/hPartly Cloudy
8:54 AM27.8 °C22.2 °C71 %1012.2 hPa16.1 kmNE (40°)35.2 km/hScattered Clouds
9:54 AM27.8 °C22.8 °C74 %1012.2 hPa16.1 kmNE (50°)27.8 km/h0 mmRainLight Rain
10:54 AM27.8 °C22.8 °C74 %1011.5 hPa14.5 kmNE (50°)27.8 km/h0 mmMostly Cloudy
11:47 AM28 °C22 °C70 %1011.5 hPa16.1 kmEast (90°)33.3 km/h44.4 km/hMostly Cloudy
11:54 AM27.8 °C24.4 °C82 %1010.8 hPa16.1 kmEast (100°)18.5 km/h44.4 km/h0 mmRainLight Rain
12:12 PM27 °C24 °C84 %1011.2 hPa11.3 kmEast (80°)22.2 km/h0 mmRainLight Rain
12:54 PM28.9 °C23.3 °C72 %1009.8 hPa16.1 kmENE (60°)31.5 km/h40.7 km/h0.51 mmMostly Cloudy
1:54 PM30 °C22.2 °C63 %1009.1 hPa16.1 kmNE (50°)31.5 km/h38.9 km/hScattered Clouds
2:54 PM29.4 °C21.7 °C63 %1008.5 hPa16.1 kmNE (50°)31.5 km/hMostly Cloudy
3:54 PM29.4 °C22.2 °C65 %1008.5 hPa16.1 kmENE (60°)29.6 km/h38.9 km/hScattered Clouds
4:34 PM29 °C22 °C66 %1009.5 hPa16.1 kmENE (60°)25.9 km/hMostly Cloudy
4:46 PM29 °C22 °C66 %1009.8 hPa16.1 kmNE (50°)27.8 km/hScattered Clouds
4:54 PM28.3 °C22.8 °C72 %1009.1 hPa16.1 kmENE (60°)25.9 km/hScattered Clouds
5:24 PM25 °C23 °C89 %1010.5 hPa4.8 kmEast (90°)24.1 km/h50.1 km/h0 mmRainHeavy Rain
5:39 PM25 °C24 °C94 %1010.5 hPa4.8 kmEast (80°)18.5 km/h0.51 mmRainLight Rain
5:46 PM25 °C23 °C89 %1010.5 hPa11.3 kmENE (70°)22.2 km/h0.51 mmRainLight Rain
5:54 PM25 °C23.3 °C90 %1009.8 hPa9.7 kmENE (70°)25.9 km/h0.51 mmRainLight Rain
6:54 PM25.6 °C23.9 °C90 %1009.8 hPa16.1 kmEast (80°)18.5 km/h0 mmPartly Cloudy
7:54 PM25.6 °C23.3 °C87 %1010.5 hPa16.1 kmEast (80°)18.5 km/hClear
8:54 PM25.6 °C23.3 °C87 %1011.2 hPa16.1 kmENE (70°)14.8 km/hPartly Cloudy
9:54 PM26.1 °C23.3 °C84 %1011.2 hPa16.1 kmENE (60°)16.7 km/hScattered Clouds
10:54 PM25.6 °C23.9 °C90 %1011.2 hPa16.1 kmENE (60°)14.8 km/hScattered Clouds
Hourly data recorded from PGUM, located 0 kilometers away from Camp Quezon, Guam







STORIES FROM OUR PARTNERS